SCP
1 1 1 2 2 1 0 0 0 0 0 0 0 0 0 0 0 0 0 0 0 0 0 1 1 1 1 1 1 1 1 1 1 1 1 1 1 1 1 1 1 0 1 1 1 1 1 1 1
1 1 1 2 2 1 0 0 0 0 0 0 0 0 0 0 0 0 0 0 0 0 0 0 1 1 1 1 1 2 2 2 2 2 1 1 1 1 1 0 0 0 1 1 1 1 1 1 1
1 1 2 2 1 0 0 0 0 0 0 0 0 0 0 0 0 0 0 0 0 0 0 1 1 1 2 2 1 2 2 2 2 2 1 1 1 1 0 0 0 0 1 1 1 1 1 1 1
1 1 2 2 1 0 0 0 0 0 0 0 0 0 0 0 0 0 0 0 0 0 0 1 1 2 1 1 1 1 1 1 2 2 1 1 1 1 1 0 0 0 0 0 1 1 1 1 1
1 2 2 1 0 0 0 0 0 0 0 0 0 0 0 0 0 0 0 0 0 0 0 1 1 1 1 1 1 1 1 1 1 1 2 2 1 1 1 1 1 1 0 1 1 1 1 1 1
2 2 2 1 0 0 0 0 0 0 0 0 0 0 1 1 1 0 0 0 0 0 0 1 1 1 1 1 1 1 1 1 1 1 2 2 2 1 1 1 1 1 1 1 1 1 1 1 1
2 2 1 0 0 0 0 0 0 0 0 0 0 0 1 1 1 0 0 0 0 0 0 0 1 1 1 1 1 1 1 1 1 1 2 2 2 1 1 1 1 1 1 1 1 1 1 1 1
2 2 1 0 0 0 0 0 0 0 1 1 0 0 1 1 1 1 0 0 0 0 0 0 0 0 1 1 1 1 1 1 1 1 2 2 1 1 1 1 1 1 1 1 1 1 1 1 1
2 1 1 0 0 0 0 0 0 1 1 1 1 0 1 1 1 0 0 0 0 0 0 0 0 0 0 1 1 1 1 1 1 1 1 1 1 1 1 1 1 1 1 1 1 1 1 1 1
1 1 1 0 0 0 0 0 0 1 1 1 1 1 1 1 1 1 0 0 0 0 0 0 0 0 0 0 0 1 1 1 1 1 1 1 1 1 1 1 1 1 1 1 1 1 1 1 1
1 1 0 0 0 0 0 0 0 0 0 1 1 1 1 1 1 1 1 1 1 1 0 0 0 1 1 1 1 1 1 1 1 1 1 1 1 1 1 1 1 1 1 1 1 1 1 1 1
1 1 0 0 0 1 1 0 0 0 0 0 0 1 1 1 1 1 1 1 1 1 1 1 1 1 1 1 1 1 1 1 1 1 1 1 1 2 2 1 2 2 2 2 2 1 1 1 1
1 0 0 0 1 1 1 1 0 1 1 0 1 1 1 1 1 1 1 2 1 1 1 1 1 1 1 1 1 1 1 1 1 1 1 2 2 2 2 2 2 2 2 2 2 1 1 1 1
0 0 0 0 1 1 1 1 1 1 1 1 1 1 0 0 1 1 2 2 2 2 2 1 1 1 1 1 1 1 1 1 1 1 2 2 2 2 2 2 2 2 1 1 1 1 1 1 1
1 1 1 1 0 1 1 1 1 1 1 0 1 1 0 0 1 1 2 2 2 2 2 2 2 1 1 1 1 1 1 1 1 1 2 2 2 2 2 2 1 1 1 1 1 1 1 1 1
1 1 1 1 0 0 0 1 1 1 0 0 1 1 0 0 1 1 1 1 1 2 2 2 2 2 1 1 1 1 1 1 1 1 1 1 1 1 1 2 1 1 1 1 1 1 1 1 2
1 1 1 1 1 0 0 1 1 1 1 0 0 0 0 1 1 1 1 1 1 1 2 2 2 2 2 1 1 1 1 1 1 1 1 1 1 1 2 2 2 2 2 2 2 2 2 2 2
0 0 1 1 1 1 1 1 1 1 1 1 0 0 1 1 1 1 1 1 1 1 1 2 2 2 2 2 1 1 1 1 1 1 1 1 1 1 2 2 2 2 3 2 2 2 2 2 2
0 0 1 1 1 1 1 1 1 1 1 1 0 1 1 1 1 1 1 1 1 1 1 2 3 3 2 2 2 1 1 1 1 1 1 2 2 2 2 3 4 4 4 3 2 1 1 1 1
0 0 1 1 1 1 0 0 1 1 1 1 1 1 1 1 1 1 1 1 1 1 1 2 2 3 3 2 2 2 2 2 2 2 2 2 2 3 3 5 5 5 5 4 3 1 1 1 1
0 0 1 1 1 1 0 1 1 1 1 1 1 1 1 2 2 1 1 1 1 1 1 2 2 3 3 3 3 2 2 2 2 2 2 3 3 3 4 5 6 6 6 5 3 2 1 1 1
0 0 1 0 1 1 1 1 1 1 1 1 1 1 1 2 2 2 1 1 1 1 1 2 3 4 4 4 3 3 2 2 2 2 3 3 4 4 5 5 6 7 6 5 3 2 2 2 2
1 1 1 0 0 1 1 1 1 1 1 1 1 1 1 1 2 2 2 2 2 1 1 2 3 5 5 5 4 4 3 3 3 3 3 4 4 5 5 5 6 6 6 4 3 3 2 2 2
1 1 0 0 0 1 1 1 1 1 1 1 1 1 1 1 1 2 2 2 2 2 2 2 3 5 5 5 5 4 4 4 4 4 4 4 4 5 5 5 5 5 4 3 3 3 3 4 4
1 0 0 0 0 1 1 1 1 1 1 1 1 1 1 1 2 2 3 3 2 2 2 3 4 4 5 5 4 4 4 5 4 4 4 4 4 4 4 4 3 3 3 3 3 4 4 5 6
1 0 0 0 0 0 1 1 1 1 1 1 1 1 1 1 2 3 3 3 2 2 2 3 4 5 4 4 4 4 4 4 4 4 3 4 4 4 4 3 3 3 3 3 4 4 5 5 6
0 0 0 0 0 0 0 1 1 1 1 1 1 1 1 1 2 2 2 2 2 2 3 4 5 6 5 5 5 4 4 4 3 3 4 4 4 4 3 3 4 4 4 4 5 5 5 5 5
0 0 0 0 0 0 0 0 1 1 1 1 1 1 1 1 2 2 2 2 2 3 3 4 5 6 6 6 5 5 4 4 3 4 5 5 5 4 4 4 4 4 5 5 5 4 4 4 5
1 0 0 0 0 0 0 0 1 1 1 1 1 1 1 1 2 2 2 3 3 4 4 5 6 6 7 6 6 5 4 4 4 5 5 5 5 5 5 5 4 3 3 4 3 3 3 4 4
1 0 0 0 0 0 0 1 1 1 1 1 1 1 1 1 2 2 2 3 3 4 4 5 6 6 7 7 6 5 4 4 5 6 6 5 5 6 6 5 3 2 2 2 2 2 3 4 3
Wind_Speed
11 9 5 5 5 1 8 8 7 7 6 7 6 5 7 8 8 6 5 4 4 3 2 3 2 2 1 2 2 3 3 3 4 4 5 5 6 6 6 5 5 5 5 5 5 5 5 5 4
8 6 6 5 3 5 9 8 8 8 6 4 4 5 6 8 7 5 4 4 3 3 2 3 3 2 2 2 3 3 3 3 3 4 5 5 5 5 5 5 5 5 5 5 5 5 5 4 4
6 6 5 3 5 8 9 8 8 6 5 4 4 5 6 7 6 5 5 3 2 3 3 5 3 2 2 1 2 3 3 3 3 4 4 4 4 4 4 4 4 4 4 4 4 5 4 4 4
5 5 5 1 9 9 7 7 6 5 5 5 4 6 6 6 4 5 4 3 3 3 3 5 3 2 2 2 3 3 3 3 3 3 4 4 3 4 4 4 3 3 3 4 5 4 5 5 5
5 5 2 5 9 8 7 6 5 6 5 5 5 6 8 6 5 5 5 4 4 4 3 5 5 3 2 2 2 3 3 3 3 3 3 3 2 2 3 3 3 3 2 3 4 4 4 5 6
5 4 2 7 9 7 7 6 5 6 6 5 4 6 7 5 5 4 5 4 5 5 4 4 6 4 4 3 3 3 3 4 4 3 3 3 2 2 3 4 3 3 2 3 3 3 4 5 5
5 3 5 7 7 7 6 5 5 6 6 6 4 5 7 5 4 4 5 4 5 5 5 4 4 4 4 3 3 3 4 4 4 4 4 3 3 3 4 4 3 2 2 3 3 2 3 4 4
5 3 3 6 7 8 6 4 4 5 6 5 3 4 6 6 5 5 5 5 5 5 5 5 5 4 2 3 5 3 4 4 4 4 4 3 4 5 5 4 3 2 2 3 3 2 3 3 4
5 3 5 7 6 6 4 4 4 4 5 5 5 6 7 8 6 4 4 4 5 5 5 5 5 4 4 4 4 3 5 5 4 4 4 2 2 3 4 5 4 2 2 3 3 2 3 4 6
4 3 7 6 5 4 3 3 3 3 5 6 7 7 8 7 5 4 4 4 5 5 5 5 5 5 5 4 3 2 3 4 3 3 3 2 2 2 2 6 5 3 3 4 4 4 5 5 4
2 4 4 3 3 2 3 3 3 2 5 5 6 8 7 6 5 4 4 4 5 4 4 5 5 4 4 3 3 3 3 3 3 4 3 2 2 2 2 2 3 3 3 2 4 4 2 1 1
0 2 2 2 2 1 2 3 3 4 6 5 6 7 7 6 5 4 4 4 4 4 4 4 4 4 4 4 4 3 3 3 3 4 3 3 2 2 3 2 2 1 1 2 1 1 2 1 1
1 1 2 2 2 2 3 3 4 5 5 6 7 7 6 5 5 4 4 4 4 4 4 4 4 4 4 4 3 3 3 3 4 3 4 3 2 3 3 2 2 2 2 1 1 1 2 1 2
2 0 2 2 3 3 3 4 3 5 5 6 7 6 6 5 4 4 3 3 3 3 4 4 4 4 3 3 3 3 3 3 3 3 4 3 3 3 2 1 2 2 2 2 1 2 1 1 1
2 3 4 3 2 2 2 4 4 5 5 7 6 6 5 5 4 3 3 2 3 3 4 3 3 4 3 3 2 3 3 3 3 3 4 3 3 2 1 2 2 2 2 2 1 1 1 1 2
6 6 3 4 2 2 6 2 5 5 6 6 6 5 5 4 4 3 3 2 2 2 3 3 3 4 3 3 2 2 3 3 3 3 3 3 3 2 1 2 2 2 1 1 1 1 1 1 1
6 3 0 4 2 2 4 1 4 4 5 5 5 6 5 5 4 4 3 3 2 2 2 2 2 3 3 3 2 2 2 2 2 2 3 3 3 2 2 2 2 1 2 2 1 2 1 1 1
2 2 1 0 2 3 4 1 4 5 5 5 5 6 5 5 5 4 4 3 3 3 2 2 2 2 2 2 2 2 2 2 2 2 3 2 2 2 2 1 2 2 2 2 2 2 1 1 1
5 4 2 2 1 3 3 2 4 5 5 5 5 6 5 5 5 5 4 4 3 3 2 1 1 2 1 1 1 1 1 2 2 2 3 2 2 2 1 2 2 1 2 2 2 1 1 0 1
6 5 2 1 1 3 2 2 3 5 6 5 5 5 6 6 6 5 5 4 4 3 3 2 2 2 1 1 1 1 1 1 1 2 3 2 2 2 1 2 1 2 1 1 1 1 1 1 1
6 5 3 2 2 4 4 4 6 6 6 6 5 5 6 6 6 6 5 4 4 3 3 2 2 2 1 1 1 1 1 1 1 1 1 1 1 1 2 2 2 2 1 2 1 1 1 2 1
6 3 4 4 6 2 5 3 5 6 7 6 6 6 6 7 7 7 6 5 4 4 3 3 2 2 2 2 2 1 1 0 1 0 1 1 1 1 1 1 1 1 1 1 1 2 1 2 1
3 2 4 6 7 6 5 6 3 5 5 6 6 6 6 7 7 7 6 5 4 4 3 3 3 2 2 2 2 2 2 1 1 1 1 0 1 0 0 0 1 1 1 1 2 2 3 2 2
4 5 5 7 8 6 2 6 1 3 3 4 6 6 6 6 7 7 6 5 5 4 4 3 3 3 3 3 3 2 2 1 1 1 0 1 1 1 0 0 1 1 1 1 1 2 2 3 3
9 8 6 7 6 3 1 5 1 2 1 2 4 5 6 6 7 7 7 6 5 4 4 4 4 3 3 3 3 3 3 3 2 2 1 1 1 0 1 1 1 2 1 1 1 1 2 2 2
9 10 8 7 5 2 4 3 3 3 2 2 3 4 5 6 6 6 6 5 5 5 4 4 4 3 3 3 2 2 3 3 2 2 2 1 1 1 1 0 1 1 2 1 1 1 1 1 2
9 9 8 9 7 7 3 2 3 3 3 4 5 5 5 5 5 5 5 4 4 5 5 4 4 3 3 2 2 2 2 2 1 1 2 2 1 1 0 1 1 1 1 1 2 1 2 2 2
8 7 7 8 7 7 5 4 1 4 4 5 5 5 5 6 6 6 5 4 4 4 4 4 4 3 2 2 2 2 2 1 1 2 1 1 1 1 1 1 1 1 1 1 1 1 1 2 2
7 8 7 6 7 8 5 1 4 3 4 5 6 5 6 5 6 6 5 5 4 4 4 4 3 3 2 2 2 2 1 1 1 1 1 1 1 1 1 1 1 1 1 1 1 2 1 2 1
7 7 8 7 6 7 8 0 6 3 4 4 5 5 5 4 5 5 5 4 3 3 3 3 2 2 2 2 2 2 1 1 1 1 0 1 1 1 1 1 1 1 1 2 2 2 2 1 1
Wind_Direction
182 185 203 232 238 153 54 47 37 38 42 43 37 25 32 29 14 33 51 45 37 42 82 137 127 132 155 160 155 147 145 148 153 158 160 157 155 155 157 160 165 166 168 169 168 167 170 166 161
178 184 223 241 292 57 58 41 42 39 50 55 49 36 44 51 38 52 63 47 41 45 79 87 76 78 114 146 151 151 147 142 139 151 156 156 154 157 160 163 167 170 174 170 168 170 169 162 158
183 223 258 262 37 43 49 44 48 59 52 37 48 44 37 37 40 49 57 68 59 56 50 82 55 54 74 111 134 138 138 136 134 144 152 150 148 155 162 164 166 167 168 170 170 174 174 167 171
213 225 237 308 61 51 41 43 46 61 63 47 43 68 65 43 35 59 76 73 62 62 55 83 61 39 57 87 115 126 132 138 135 134 136 135 148 162 166 163 155 151 159 174 178 179 179 176 179
241 254 218 75 64 59 52 49 41 42 49 52 48 67 69 56 57 75 81 65 52 54 55 82 75 48 43 77 96 112 128 131 121 117 120 125 140 156 161 153 160 160 161 167 169 176 182 180 178
246 252 24 62 66 64 63 56 45 51 66 66 61 72 73 75 79 80 74 62 49 51 54 82 106 74 57 61 69 84 106 114 115 115 117 118 117 127 140 149 154 162 165 162 165 174 184 180 179
289 329 44 54 69 71 61 47 37 49 60 52 39 67 87 87 84 85 82 65 52 48 47 52 83 99 100 92 83 79 101 108 112 107 107 111 113 123 134 150 154 157 160 164 162 161 154 170 173
290 293 63 59 56 65 72 68 47 45 67 65 36 60 84 103 106 97 86 67 54 47 40 38 51 51 53 89 97 95 114 116 114 107 102 114 132 139 145 159 129 121 124 138 149 158 150 154 156
263 279 52 44 40 63 77 78 78 64 87 81 62 58 83 113 118 102 84 72 62 48 46 35 44 47 40 38 71 104 127 128 138 127 125 157 132 125 141 97 96 111 119 125 131 128 162 175 160
264 8 48 34 25 57 78 58 87 119 99 98 98 92 107 124 119 94 71 60 59 46 50 49 39 37 45 38 46 61 88 97 90 80 85 74 79 80 84 111 120 118 131 153 145 151 179 204 167
295 11 39 42 36 42 88 74 70 104 81 84 107 119 128 124 117 98 75 56 58 51 50 56 55 32 32 43 40 51 70 79 86 80 70 71 67 83 83 92 122 131 151 148 143 170 170 153 115
286 10 -0 31 39 37 85 92 84 52 66 84 108 122 130 130 111 94 85 70 65 55 52 51 53 61 39 31 37 50 62 69 68 73 54 64 68 56 61 59 52 56 88 106 113 124 110 105 121
223 62 57 65 92 87 109 107 89 84 91 111 117 127 131 123 111 97 82 80 75 69 57 59 48 51 53 49 32 52 53 54 67 59 59 52 64 62 59 48 46 41 69 109 109 95 99 112 118
8 87 122 111 119 134 132 115 119 97 121 130 136 139 132 123 117 110 100 86 84 77 69 62 61 71 62 57 52 54 65 77 62 63 61 55 61 61 53 61 54 48 45 46 48 95 124 136 116
212 203 162 138 155 155 204 137 111 120 142 147 151 142 135 134 130 120 105 91 80 75 69 69 75 73 72 62 57 64 61 68 63 65 63 55 60 72 61 59 59 47 46 64 70 77 108 134 132
217 225 189 129 179 183 248 108 109 142 162 160 157 152 150 144 142 133 129 121 97 80 83 67 65 79 77 71 61 63 55 56 57 61 65 56 44 44 33 55 53 37 35 55 75 53 69 71 86
210 244 123 136 176 225 249 85 122 161 175 170 170 167 163 157 158 152 151 139 121 107 105 96 69 71 73 82 97 92 81 63 48 53 56 57 47 36 23 39 41 16 33 44 29 66 32 66 51
297 303 292 92 136 242 242 164 140 171 185 182 179 173 171 171 167 162 158 142 132 124 122 113 108 87 93 111 109 95 86 80 63 57 56 51 58 50 20 61 56 25 45 43 45 56 53 358 315
291 286 303 37 75 254 250 223 166 175 185 189 189 180 174 171 162 160 160 156 149 144 140 131 105 103 118 105 104 97 99 89 76 69 62 56 48 54 31 31 69 43 66 51 47 25 106 19 325
252 261 253 135 166 269 265 245 180 184 193 191 188 182 174 168 158 161 165 164 160 158 162 165 166 145 170 116 105 74 54 80 82 67 73 63 57 35 49 42 29 59 74 78 53 25 336 29 17
243 264 290 285 215 222 254 205 182 186 192 191 195 191 182 181 170 166 171 172 172 170 174 167 169 169 186 192 182 146 154 162 123 103 100 71 54 52 34 33 18 35 33 62 35 18 359 335 352
239 257 268 250 250 226 259 275 168 185 192 195 199 196 188 184 179 172 174 176 181 179 170 170 177 177 184 196 200 200 195 139 76 118 92 90 78 59 51 29 28 10 25 53 325 48 345 322 325
269 244 242 250 262 263 230 273 133 169 202 197 196 199 194 187 184 178 177 174 179 174 172 168 171 179 188 198 192 213 217 198 174 160 125 194 127 110 342 4 0 350 6 33 2 354 331 331 333
198 204 214 232 249 255 260 272 225 157 218 199 193 195 195 188 184 181 178 176 180 177 177 170 164 179 192 198 199 215 227 238 252 245 202 216 169 175 58 310 328 310 351 13 317 315 333 335 333
221 235 232 227 228 242 149 262 1 76 148 194 190 188 185 184 182 181 181 183 184 180 182 181 173 186 195 197 207 213 226 226 227 243 224 265 267 237 56 355 345 339 356 334 295 272 322 322 316
226 247 261 271 272 247 191 253 62 85 95 153 168 167 166 173 171 169 171 177 182 180 184 184 175 186 192 194 200 214 225 235 231 227 268 259 281 322 30 346 326 333 319 313 304 294 295 313 309
229 238 266 270 271 270 235 201 155 132 139 150 153 148 146 153 154 156 159 164 181 181 181 183 179 180 189 188 187 191 212 248 271 242 244 258 276 274 216 248 254 282 302 313 286 318 331 321 301
259 248 235 250 264 263 247 242 209 152 172 166 161 154 147 147 147 151 153 161 178 178 171 175 184 180 185 183 202 179 188 204 232 251 275 296 287 290 255 246 264 288 302 309 288 279 303 288 299
205 220 243 255 269 274 270 294 79 152 174 175 168 156 148 149 147 147 150 160 170 171 166 171 181 179 176 180 189 209 207 191 205 229 250 245 246 229 235 235 274 300 305 298 291 299 300 288 308
244 242 236 243 246 264 276 63 98 139 164 172 160 148 145 147 145 143 143 148 154 155 153 162 174 178 181 181 194 198 201 229 225 206 258 256 230 223 212 215 231 266 284 291 287 293 298 295 309